| time (UTC) | temp C | wind direction | speed KPH | gust KPH | rain 1hr cm | rain 24hr cm | rain mn cm | humidity % | barometer mb |
| 20260502233142 | 10 | 0.0 | 0.0 | 0.00 | 0.56 | 0.00 | 95 | 1008.0 | |
| 20260502232138 | 10 | 0.0 | 0.0 | 0.03 | 0.56 | 0.00 | 95 | 1008.0 | |
| 20260502231134 | 10 | 0.0 | 0.0 | 0.03 | 0.56 | 0.00 | 95 | 1008.0 | |
| 20260502230130 | 10 | 0.0 | 0.0 | 0.03 | 0.56 | 0.00 | 95 | 1007.9 | |
| 20260502225125 | 10 | 0.0 | 0.0 | 0.03 | 0.56 | 0.56 | 95 | 1007.9 | |
| 20260502224120 | 10 | 0.0 | 0.0 | 0.03 | 0.56 | 0.56 | 95 | 1008.0 | |
| 20260502223116 | 10 | 0 | 1.6 | 6.4 | 0.03 | 0.56 | 0.56 | 94 | 1008.0 |
| 20260502222131 | 10 | 0.0 | 0.0 | 0.03 | 0.53 | 0.53 | 94 | 1008.0 | |
| 20260502221108 | 10 | 0.0 | 0.0 | 0.03 | 0.53 | 0.53 | 94 | 1008.1 | |
| 20260502220104 | 10 | 0.0 | 0.0 | 0.03 | 0.53 | 0.53 | 93 | 1008.1 | |
| 20260502215100 | 10 | 0 | 3.2 | 4.8 | 0.05 | 0.53 | 0.53 | 94 | 1008.3 |
| 20260502214056 | 10 | 0 | 4.8 | 6.4 | 0.10 | 0.53 | 0.53 | 94 | 1008.3 |
| 20260502213152 | 10 | 4.8 | 6.4 | 0.13 | 0.53 | 0.53 | 95 | 1008.3 | |
| 20260502212148 | 10 | 0 | 4.8 | 6.4 | 0.10 | 0.51 | 0.51 | 95 | 1008.4 |
| 20260502211143 | 10 | 0 | 4.8 | 6.4 | 0.13 | 0.51 | 0.51 | 95 | 1008.5 |
| 20260502210138 | 11 | 0 | 4.8 | 6.4 | 0.15 | 0.51 | 0.51 | 95 | 1008.5 |
| 20260502205134 | 11 | 0 | 4.8 | 6.4 | 0.13 | 0.48 | 0.48 | 95 | 1008.5 |
| 20260502204149 | 11 | 0 | 4.8 | 6.4 | 0.13 | 0.46 | 0.46 | 94 | 1008.7 |
| 20260502203125 | 11 | 0.0 | 0.0 | 0.13 | 0.43 | 0.43 | 94 | 1008.6 | |
| 20260502202121 | 11 | 0.0 | 0.0 | 0.15 | 0.43 | 0.43 | 93 | 1008.7 | |
| 20260502201116 | 11 | 0.0 | 0.0 | 0.13 | 0.38 | 0.38 | 93 | 1008.8 | |
| 20260502200111 | 11 | 0.0 | 0.0 | 0.13 | 0.36 | 0.36 | 92 | 1008.8 | |
| 20260502195106 | 11 | 0.0 | 0.0 | 0.15 | 0.36 | 0.36 | 91 | 1008.9 | |
| 20260502194101 | 11 | 0.0 | 1.6 | 0.18 | 0.33 | 0.33 | 91 | 1008.9 | |
| 20260502193056 | 11 | 315 | 0.0 | 3.2 | 0.18 | 0.30 | 0.30 | 90 | 1009.0 |
| 20260502192052 | 11 | 0.0 | 0.0 | 0.18 | 0.28 | 0.28 | 89 | 1009.1 | |
| 20260502191208 | 11 | 0.0 | 0.0 | 0.20 | 0.28 | 0.28 | 87 | 1009.1 | |
| 20260502190144 | 11 | 0.0 | 0.0 | 0.18 | 0.23 | 0.23 | 85 | 1009.3 | |
| 20260502185139 | 11 | 0.0 | 0.0 | 0.18 | 0.20 | 0.20 | 84 | 1009.4 | |
| 20260502184134 | 11 | 156 | 1.6 | 3.2 | 0.13 | 0.15 | 0.15 | 83 | 1009.4 |
| 20260502183149 | 12 | 135 | 3.2 | 6.4 | 0.10 | 0.13 | 0.13 | 82 | 1009.4 |
| 20260502182125 | 12 | 146 | 4.8 | 6.4 | 0.10 | 0.13 | 0.10 | 81 | 1009.5 |
| 20260502181121 | 12 | 148 | 4.8 | 6.4 | 0.05 | 0.10 | 0.05 | 80 | 1009.6 |
| 20260502180138 | 12 | 138 | 4.8 | 6.4 | 0.05 | 0.10 | 0.05 | 76 | 1009.5 |
| 20260502164143 | 15 | 90 | 4.8 | 8.0 | 0.00 | 0.03 | 0.00 | 64 | 1009.7 |
| 20260502163139 | 15 | 90 | 4.8 | 6.4 | 0.00 | 0.03 | 0.00 | 63 | 1009.7 |
| 20260502162135 | 15 | 90 | 6.4 | 9.7 | 0.00 | 0.03 | 0.00 | 61 | 1009.7 |
| 20260502161130 | 15 | 90 | 6.4 | 6.4 | 0.00 | 0.03 | 0.00 | 61 | 1009.8 |
| 20260502160125 | -17 | 0.0 | 0.0 | 0.00 | 0.03 | 0.00 | 1009.9 | ||
| 20260502152145 | 16 | 4.8 | 4.8 | 0.00 | 0.03 | 0.00 | 58 | 1010.3 | |
| 20260502151102 | -17 | 0.0 | 0.0 | 0.00 | 0.03 | 0.00 | 1010.4 | ||
| 20260502130105 | 18 | 233 | 3.2 | 6.4 | 0.00 | 0.03 | 0.00 | 51 | 1011.9 |
| 20260502123053 | 17 | 225 | 4.8 | 8.0 | 0.00 | 0.03 | 0.00 | 57 | 1012.1 |
| 20260502122049 | 16 | 153 | 3.2 | 6.4 | 0.00 | 0.03 | 0.00 | 55 | 1012.3 |
| 20260502121044 | 17 | 180 | 1.6 | 4.8 | 0.00 | 0.03 | 0.00 | 52 | 1012.4 |
| 20260502115154 | 17 | 7 | 6.4 | 6.4 | 0.00 | 0.03 | 0.00 | 54 | 1012.7 |
| 20260502114149 | 16 | 99 | 3.2 | 6.4 | 0.00 | 0.03 | 0.00 | 55 | 1012.8 |
| 20260502113124 | 17 | 78 | 1.6 | 3.2 | 0.00 | 0.03 | 0.00 | 54 | 1013.0 |
| 20260502112120 | 16 | 217 | 8.0 | 9.7 | 0.00 | 0.03 | 0.00 | 59 | 1013.1 |
| 20260502111116 | 16 | 216 | 6.4 | 9.7 | 0.00 | 0.03 | 0.00 | 60 | 1013.2 |
| 20260502110112 | 16 | 90 | 4.8 | 8.0 | 0.00 | 0.03 | 0.00 | 59 | 1013.4 |
| 20260502105107 | 16 | 90 | 4.8 | 6.4 | 0.00 | 0.03 | 0.00 | 60 | 1013.3 |
| 20260502104103 | 16 | 168 | 3.2 | 6.4 | 0.00 | 0.03 | 0.00 | 63 | 1013.4 |
| 20260502103058 | 15 | 225 | 1.6 | 3.2 | 0.00 | 0.05 | 0.00 | 65 | 1013.3 |
| 20260502102053 | 14 | 297 | 1.6 | 3.2 | 0.00 | 0.13 | 0.00 | 65 | 1013.4 |
| 20260502101049 | 13 | 225 | 4.8 | 6.4 | 0.00 | 0.15 | 0.00 | 66 | 1013.4 |
| 20260502091124 | 13 | 243 | 3.2 | 6.4 | 0.00 | 0.23 | 0.00 | 77 | 1014.1 |
| 20260502090120 | 11 | 250 | 3.2 | 11.3 | 0.00 | 0.23 | 0.00 | 79 | 1014.1 |
| 20260502071030 | 10 | 225 | 0.0 | 4.8 | 0.00 | 0.23 | 0.00 | 88 | 1014.2 |
| 20260502070126 | 10 | 225 | 1.6 | 4.8 | 0.00 | 0.23 | 0.00 | 88 | 1014.1 |
| 20260502065121 | 9 | 0.0 | 0.0 | 0.00 | 0.23 | 0.00 | 88 | 1014.1 | |
| 20260502064116 | 9 | 219 | 1.6 | 6.4 | 0.00 | 0.23 | 0.00 | 89 | 1014.1 |
| 20260502063111 | 9 | 206 | 3.2 | 3.2 | 0.00 | 0.23 | 0.00 | 89 | 1014.1 |
| 20260502062127 | 9 | 225 | 6.4 | 11.3 | 0.00 | 0.23 | 0.00 | 90 | 1014.2 |
| 20260502061123 | 9 | 0.0 | 0.0 | 0.00 | 0.23 | 0.00 | 90 | 1014.1 | |
| 20260502060059 | 9 | 0.0 | 0.0 | 0.00 | 0.23 | 0.00 | 90 | 1014.0 | |
| 20260502055055 | 9 | 248 | 6.4 | 6.4 | 0.00 | 0.23 | 0.00 | 90 | 1014.0 |
| 20260502054051 | 8 | 0.0 | 0.0 | 0.00 | 0.23 | 0.00 | 90 | 1013.9 | |
| 20260502053047 | 8 | 0.0 | 0.0 | 0.00 | 0.23 | 0.00 | 90 | 1013.9 | |
| 20260502052123 | 8 | 0.0 | 0.0 | 0.00 | 0.23 | 0.00 | 90 | 1014.0 | |
| 20260502051058 | 8 | 0.0 | 0.0 | 0.00 | 0.23 | 0.00 | 90 | 1014.0 | |
| 20260502050032 | 8 | 0.0 | 0.0 | 0.00 | 0.23 | 0.00 | 91 | 1013.9 | |
| 20260502045048 | 8 | 0.0 | 1.6 | 0.00 | 0.23 | 0.00 | 92 | 1014.0 | |
| 20260502044025 | 9 | 0.0 | 0.0 | 0.00 | 0.23 | 0.00 | 94 | 1014.0 | |
| 20260502043121 | 8 | 270 | 1.6 | 4.8 | 0.00 | 0.23 | 0.00 | 96 | 1014.0 |
| 20260502042116 | 8 | 0.0 | 0.0 | 0.00 | 0.23 | 0.00 | 97 | 1014.1 | |
| 20260502041111 | 8 | 236 | 1.6 | 3.2 | 0.00 | 0.23 | 0.00 | 97 | 1014.1 |
| 20260502040106 | 8 | 246 | 3.2 | 6.4 | 0.00 | 0.23 | 0.00 | 97 | 1014.2 |
| 20260502035101 | 8 | 0.0 | 0.0 | 0.00 | 0.23 | 0.00 | 97 | 1014.3 | |
| 20260502034056 | 8 | 0.0 | 0.0 | 0.00 | 0.23 | 0.00 | 97 | 1014.4 | |
| 20260502033051 | 8 | 0.0 | 0.0 | 0.00 | 0.23 | 0.00 | 97 | 1014.5 | |
| 20260502032107 | 8 | 248 | 3.2 | 6.4 | 0.00 | 0.23 | 0.00 | 97 | 1014.5 |
| 20260502031043 | 8 | 225 | 8.0 | 9.7 | 0.00 | 0.23 | 0.00 | 97 | 1014.6 |
| 20260502030039 | 7 | 241 | 9.7 | 12.9 | 0.00 | 0.23 | 0.00 | 97 | 1014.7 |
| 20260502025034 | 7 | 244 | 11.3 | 12.9 | 0.00 | 0.23 | 0.00 | 97 | 1014.8 |
| 20260502024029 | 7 | 229 | 9.7 | 12.9 | 0.00 | 0.23 | 0.00 | 98 | 1014.8 |
| 20260502023024 | 7 | 225 | 3.2 | 4.8 | 0.00 | 0.23 | 0.00 | 99 | 1015.0 |
| 20260502022020 | 7 | 0.0 | 0.0 | 0.00 | 0.23 | 0.00 | 97 | 1015.0 | |
| 20260502021116 | 7 | 0.0 | 0.0 | 0.00 | 0.23 | 0.00 | 99 | 1015.0 | |
| 20260502020112 | 7 | 0.0 | 0.0 | 0.00 | 0.23 | 0.00 | 99 | 1015.1 | |
| 20260502015108 | 7 | 0.0 | 0.0 | 0.00 | 0.23 | 0.00 | 99 | 1015.2 | |
| 20260502014104 | 7 | 0.0 | 0.0 | 0.00 | 0.23 | 0.00 | 99 | 1015.4 | |
| 20260502013100 | 7 | 0.0 | 0.0 | 0.00 | 0.23 | 0.00 | 99 | 1015.4 | |
| 20260502012056 | 7 | 0.0 | 0.0 | 0.00 | 0.23 | 0.00 | 99 | 1015.5 | |
| 20260502011051 | 7 | 0.0 | 0.0 | 0.00 | 0.23 | 0.00 | 99 | 1015.6 | |
| 20260502010046 | 7 | 270 | 1.6 | 3.2 | 0.00 | 0.23 | 0.00 | 95 | 1015.7 |
| 20260502005041 | 7 | 0.0 | 0.0 | 0.00 | 0.23 | 0.00 | 99 | 1015.8 | |
| 20260502004038 | 7 | 0.0 | 0.0 | 0.00 | 0.23 | 0.00 | 95 | 1015.9 | |
| 20260502003034 | 7 | 0.0 | 0.0 | 0.00 | 0.23 | 0.00 | 98 | 1015.9 | |
| 20260502002150 | 7 | 0.0 | 0.0 | 0.00 | 0.23 | 0.00 | 97 | 1016.0 | |
| 20260502001125 | 7 | 225 | 1.6 | 3.2 | 0.00 | 0.23 | 0.00 | 97 | 1016.2 |
| 20260502000120 | 7 | 225 | 4.8 | 6.4 | 0.00 | 0.23 | 0.00 | 92 | 1016.2 |
| 20260501235134 | 7 | 225 | 4.8 | 6.4 | 0.00 | 0.23 | 0.00 | 93 | 1016.2 |
| 20260501234109 | 7 | 225 | 4.8 | 6.4 | 0.00 | 0.23 | 0.00 | 93 | 1016.3 |